Time,TemperatureF,DewpointF,PressureIn,WindDirection,WindDirectionDegrees,WindSpeedMPH,WindSpeedGustMPH,Humidity,HourlyPrecipIn,Conditions,Clouds,dailyrainin,SolarRadiationWatts/m^2,SoftwareType,DateUTC
2013-05-15 00:00:00,62.6,44.8,30.15,NE,34,1.0,13.0,52,0.00,,SCT,0.00,0.00,VWS V14.01,2013-05-15 04:00:00,
2013-05-15 00:01:00,62.0,45.2,30.14,NE,34,0.0,2.0,54,0.00,,SCT,0.00,0.00,VWS V14.01,2013-05-15 04:01:00,
2013-05-15 00:06:00,62.0,45.2,30.13,NE,34,0.0,4.0,54,0.00,,SCT,0.00,0.00,VWS V14.01,2013-05-15 04:06:00,
2013-05-15 00:11:00,62.0,44.7,30.12,NNE,29,8.0,8.0,53,0.00,,SCT,0.00,0.00,VWS V14.01,2013-05-15 04:11:00,
2013-05-15 00:16:00,62.3,44.5,30.12,NE,37,6.0,8.0,52,0.00,,SCT,0.00,0.00,VWS V14.01,2013-05-15 04:16:00,
2013-05-15 00:21:00,62.4,44.6,30.12,NNE,33,3.0,9.0,52,0.00,,SCT,0.00,0.00,VWS V14.01,2013-05-15 04:21:00,
2013-05-15 00:26:00,62.3,44.5,30.12,NNE,32,5.0,10.0,52,0.00,,SCT,0.00,0.00,VWS V14.01,2013-05-15 04:26:00,
2013-05-15 00:31:00,62.4,44.0,30.12,NNE,15,10.0,13.0,51,0.00,,SCT,0.00,0.00,VWS V14.01,2013-05-15 04:31:00,
2013-05-15 00:36:00,62.7,44.3,30.11,NE,49,2.0,14.0,51,0.00,,SCT,0.00,0.00,VWS V14.01,2013-05-15 04:36:00,
2013-05-15 00:41:00,62.7,44.3,30.11,NNE,12,6.0,15.0,51,0.00,,SCT,0.00,0.00,VWS V14.01,2013-05-15 04:41:00,
2013-05-15 00:46:00,62.9,44.5,30.11,ENE,61,10.0,15.0,51,0.00,,SCT,0.00,0.00,VWS V14.01,2013-05-15 04:46:00,
2013-05-15 00:51:00,62.9,44.5,30.11,NNE,17,4.0,15.0,51,0.00,,SCT,0.00,0.00,VWS V14.01,2013-05-15 04:51:00,
2013-05-15 00:56:00,63.0,44.6,30.11,NNE,18,8.0,10.0,51,0.00,,SCT,0.00,0.00,VWS V14.01,2013-05-15 04:56:00,
2013-05-15 01:00:00,62.9,44.0,30.11,NNE,32,3.0,15.0,50,0.00,,SCT,0.00,0.00,VWS V14.01,2013-05-15 05:00:00,
2013-05-15 01:01:00,62.8,44.4,30.11,NE,39,3.0,10.0,51,0.00,,SCT,0.00,0.00,VWS V14.01,2013-05-15 05:01:00,
2013-05-15 01:06:00,62.6,44.8,30.11,NE,44,3.0,10.0,52,0.00,,SCT,0.00,0.00,VWS V14.01,2013-05-15 05:06:00,
2013-05-15 01:11:00,62.3,44.5,30.11,NNE,14,0.0,10.0,52,0.00,,SCT,0.00,0.00,VWS V14.01,2013-05-15 05:11:00,
2013-05-15 01:16:00,62.0,44.7,30.11,ENE,59,0.0,10.0,53,0.00,,SCT,0.00,0.00,VWS V14.01,2013-05-15 05:16:00,
2013-05-15 01:21:00,61.8,45.0,30.11,ENE,59,0.0,10.0,54,0.00,,SCT,0.00,0.00,VWS V14.01,2013-05-15 05:21:00,
2013-05-15 01:26:00,61.6,44.8,30.10,ENE,59,0.0,10.0,54,0.00,,SCT,0.00,0.00,VWS V14.01,2013-05-15 05:26:00,
2013-05-15 01:31:00,61.3,45.5,30.11,ENE,59,1.0,10.0,56,0.00,,SCT,0.00,0.00,VWS V14.01,2013-05-15 05:31:00,
2013-05-15 01:36:00,60.9,45.1,30.10,ENE,59,0.0,10.0,56,0.00,,SCT,0.00,0.00,VWS V14.01,2013-05-15 05:36:00,
2013-05-15 01:41:00,60.6,45.8,30.10,ENE,59,1.0,10.0,58,0.00,,SCT,0.00,0.00,VWS V14.01,2013-05-15 05:41:00,
2013-05-15 01:46:00,60.3,45.5,30.10,ENE,59,0.0,10.0,58,0.00,,SCT,0.00,0.00,VWS V14.01,2013-05-15 05:46:00,
2013-05-15 01:51:00,60.3,45.5,30.10,ENE,59,0.0,10.0,58,0.00,,SCT,0.00,0.00,VWS V14.01,2013-05-15 05:51:00,
2013-05-15 01:56:00,60.1,45.7,30.09,ENE,59,0.0,0.0,59,0.00,,SCT,0.00,0.00,VWS V14.01,2013-05-15 05:56:00,
2013-05-15 02:00:00,60.2,45.8,30.09,ENE,59,0.0,10.0,59,0.00,,SCT,0.00,0.00,VWS V14.01,2013-05-15 06:00:00,
2013-05-15 02:01:00,60.3,45.9,30.09,NNW,333,3.0,4.0,59,0.00,,SCT,0.00,0.00,VWS V14.01,2013-05-15 06:01:00,
2013-05-15 02:06:00,60.4,45.6,30.09,NNW,340,4.0,6.0,58,0.00,,SCT,0.00,0.00,VWS V14.01,2013-05-15 06:06:00,
2013-05-15 02:11:00,60.8,45.5,30.08,NNW,347,3.0,7.0,57,0.00,,SCT,0.00,0.00,VWS V14.01,2013-05-15 06:11:00,
2013-05-15 02:16:00,61.0,45.7,30.08,NE,49,1.0,7.0,57,0.00,,SCT,0.00,0.00,VWS V14.01,2013-05-15 06:16:00,
2013-05-15 02:21:00,61.0,45.2,30.09,North,355,1.0,7.0,56,0.00,,SCT,0.00,0.00,VWS V14.01,2013-05-15 06:21:00,
2013-05-15 02:26:00,61.0,45.2,30.08,NNW,348,3.0,8.0,56,0.00,,SCT,0.00,0.00,VWS V14.01,2013-05-15 06:26:00,
2013-05-15 02:31:00,60.9,45.6,30.08,NNE,24,2.0,8.0,57,0.00,,SCT,0.00,0.00,VWS V14.01,2013-05-15 06:31:00,
2013-05-15 02:36:00,60.7,45.8,30.08,NNE,30,0.0,11.0,58,0.00,,SCT,0.00,0.00,VWS V14.01,2013-05-15 06:36:00,
2013-05-15 02:41:00,59.9,45.5,30.08,North,5,4.0,11.0,59,0.00,,SCT,0.00,0.00,VWS V14.01,2013-05-15 06:41:00,
2013-05-15 02:46:00,59.6,45.7,30.07,NE,37,3.0,11.0,60,0.00,,SCT,0.00,0.00,VWS V14.01,2013-05-15 06:46:00,
2013-05-15 02:51:00,59.5,45.6,30.08,ENE,60,0.0,11.0,60,0.00,,SCT,0.00,0.00,VWS V14.01,2013-05-15 06:51:00,
2013-05-15 02:56:00,59.2,45.8,30.08,ENE,69,0.0,3.0,61,0.00,,SCT,0.00,0.00,VWS V14.01,2013-05-15 06:56:00,
2013-05-15 03:00:00,59.4,45.5,30.08,ENE,60,0.0,11.0,60,0.00,,SCT,0.00,0.00,VWS V14.01,2013-05-15 07:00:00,
2013-05-15 03:01:00,58.6,45.6,30.08,NNE,25,0.0,3.0,62,0.00,,SCT,0.00,0.00,VWS V14.01,2013-05-15 07:01:00,
2013-05-15 03:06:00,58.2,45.7,30.08,ENE,66,2.0,4.0,63,0.00,,SCT,0.00,0.00,VWS V14.01,2013-05-15 07:06:00,
2013-05-15 03:11:00,58.0,45.9,30.07,ENE,62,1.0,4.0,64,0.00,,SCT,0.00,0.00,VWS V14.01,2013-05-15 07:11:00,
2013-05-15 03:16:00,57.8,45.7,30.07,NE,51,2.0,4.0,64,0.00,,SCT,0.00,0.00,VWS V14.01,2013-05-15 07:16:00,
2013-05-15 03:21:00,57.7,46.0,30.07,NE,51,1.0,4.0,65,0.00,,SCT,0.00,0.00,VWS V14.01,2013-05-15 07:21:00,
2013-05-15 03:26:00,57.7,46.0,30.07,NE,51,0.0,4.0,65,0.00,,SCT,0.00,0.00,VWS V14.01,2013-05-15 07:26:00,
2013-05-15 03:31:00,57.6,45.9,30.07,NE,51,0.0,4.0,65,0.00,,SCT,0.00,0.00,VWS V14.01,2013-05-15 07:31:00,
2013-05-15 03:36:00,57.4,46.2,30.07,NE,51,0.0,4.0,66,0.00,,SCT,0.00,0.00,VWS V14.01,2013-05-15 07:36:00,
2013-05-15 03:41:00,57.3,46.0,30.07,NE,51,0.0,4.0,66,0.00,,SCT,0.00,0.00,VWS V14.01,2013-05-15 07:41:00,
2013-05-15 03:46:00,57.1,45.9,30.07,NE,51,0.0,4.0,66,0.00,,SCT,0.00,0.00,VWS V14.01,2013-05-15 07:46:00,
2013-05-15 03:51:00,57.2,46.0,30.07,NE,51,0.0,4.0,66,0.00,,SCT,0.00,0.00,VWS V14.01,2013-05-15 07:51:00,
2013-05-15 03:56:00,57.1,46.3,30.07,NE,51,0.0,1.0,67,0.00,,SCT,0.00,0.00,VWS V14.01,2013-05-15 07:56:00,
2013-05-15 04:00:00,56.9,46.1,30.06,NE,51,0.0,1.0,67,0.00,,SCT,0.00,0.00,VWS V14.01,2013-05-15 08:00:00,
2013-05-15 04:05:00,56.5,46.1,30.06,NE,51,0.0,1.0,68,0.00,,SCT,0.00,0.00,VWS V14.01,2013-05-15 08:05:00,
2013-05-15 04:10:00,56.0,46.4,30.06,NE,51,0.0,1.0,70,0.00,,SCT,0.00,0.00,VWS V14.01,2013-05-15 08:10:00,
2013-05-15 04:15:00,55.4,46.5,30.06,NE,51,0.0,1.0,72,0.00,,SCT,0.00,0.00,VWS V14.01,2013-05-15 08:15:00,
2013-05-15 04:20:00,55.2,46.7,30.06,ENE,76,3.0,3.0,73,0.00,,SCT,0.00,0.00,VWS V14.01,2013-05-15 08:20:00,
2013-05-15 04:25:00,55.1,46.6,30.06,East,88,0.0,3.0,73,0.00,,SCT,0.00,0.00,VWS V14.01,2013-05-15 08:25:00,
2013-05-15 04:30:00,55.1,46.6,30.06,East,88,0.0,3.0,73,0.00,,SCT,0.00,0.00,VWS V14.01,2013-05-15 08:30:00,
2013-05-15 04:35:00,54.8,46.7,30.06,East,88,0.0,3.0,74,0.00,,SCT,0.00,0.00,VWS V14.01,2013-05-15 08:35:00,
2013-05-15 04:40:00,54.7,46.6,30.06,East,88,0.0,3.0,74,0.00,,SCT,0.00,0.00,VWS V14.01,2013-05-15 08:40:00,
2013-05-15 04:45:00,54.2,46.5,30.06,East,88,0.0,3.0,75,0.00,,SCT,0.00,0.00,VWS V14.01,2013-05-15 08:45:00,
2013-05-15 04:50:00,54.2,46.8,30.06,East,88,0.0,3.0,76,0.00,,SCT,0.00,0.00,VWS V14.01,2013-05-15 08:50:00,
2013-05-15 04:55:00,54.2,46.8,30.06,East,88,0.0,0.0,76,0.00,,SCT,0.00,0.00,VWS V14.01,2013-05-15 08:55:00,
2013-05-15 05:00:00,54.2,46.8,30.06,East,88,0.0,0.0,76,0.00,,SCT,0.00,0.00,VWS V14.01,2013-05-15 09:00:00,
2013-05-15 05:05:00,54.2,46.8,30.06,East,88,0.0,0.0,76,0.00,,SCT,0.00,0.00,VWS V14.01,2013-05-15 09:05:00,
2013-05-15 05:10:00,54.3,46.9,30.06,East,88,0.0,0.0,76,0.00,,SCT,0.00,0.00,VWS V14.01,2013-05-15 09:10:00,
2013-05-15 05:15:00,54.0,47.3,30.06,East,88,0.0,0.0,78,0.00,,SCT,0.00,0.00,VWS V14.01,2013-05-15 09:15:00,
2013-05-15 05:20:00,53.4,47.4,30.06,East,88,0.0,0.0,80,0.00,,SCT,0.00,0.00,VWS V14.01,2013-05-15 09:20:00,
2013-05-15 05:25:00,53.1,47.4,30.06,East,88,0.0,0.0,81,0.00,,SCT,0.00,0.00,VWS V14.01,2013-05-15 09:25:00,
2013-05-15 05:30:00,53.1,47.4,30.06,East,88,0.0,0.0,81,0.00,,SCT,0.00,0.00,VWS V14.01,2013-05-15 09:30:00,
2013-05-15 05:35:00,53.4,47.1,30.06,East,93,0.0,2.0,79,0.00,,SCT,0.00,0.00,VWS V14.01,2013-05-15 09:35:00,
2013-05-15 05:40:00,53.3,47.3,30.06,East,93,0.0,2.0,80,0.00,,SCT,0.00,0.00,VWS V14.01,2013-05-15 09:40:00,
2013-05-15 05:45:00,53.2,47.2,30.06,East,93,0.0,2.0,80,0.00,,SCT,0.00,0.00,VWS V14.01,2013-05-15 09:45:00,
2013-05-15 05:50:00,53.1,47.1,30.06,East,93,1.0,2.0,80,0.00,,SCT,0.00,0.00,VWS V14.01,2013-05-15 09:50:00,
2013-05-15 05:55:00,53.0,47.3,30.07,East,93,0.0,0.0,81,0.00,,SCT,0.00,0.00,VWS V14.01,2013-05-15 09:55:00,
2013-05-15 06:00:00,52.8,47.1,30.07,East,93,0.0,0.0,81,0.00,,SCT,0.00,0.00,VWS V14.01,2013-05-15 10:00:00,
2013-05-15 06:05:00,52.9,47.2,30.07,East,93,0.0,1.0,81,0.00,,SCT,0.00,5.00,VWS V14.01,2013-05-15 10:05:00,
2013-05-15 06:10:00,52.6,47.3,30.07,East,93,0.0,1.0,82,0.00,,SCT,0.00,9.00,VWS V14.01,2013-05-15 10:10:00,
2013-05-15 06:15:00,52.7,47.4,30.07,East,93,0.0,1.0,82,0.00,,SCT,0.00,14.00,VWS V14.01,2013-05-15 10:15:00,
2013-05-15 06:20:00,52.9,47.6,30.07,East,93,0.0,1.0,82,0.00,,SCT,0.00,19.00,VWS V14.01,2013-05-15 10:20:00,
2013-05-15 06:25:00,53.0,47.7,30.07,East,93,0.0,1.0,82,0.00,,SCT,0.00,25.00,VWS V14.01,2013-05-15 10:25:00,
2013-05-15 06:30:00,53.3,48.0,30.07,East,93,0.0,1.0,82,0.00,,SCT,0.00,37.00,VWS V14.01,2013-05-15 10:30:00,
2013-05-15 06:35:00,53.6,47.9,30.07,East,93,0.0,1.0,81,0.00,,SCT,0.00,49.00,VWS V14.01,2013-05-15 10:35:00,
2013-05-15 06:40:00,53.9,47.9,30.07,East,93,0.0,1.0,80,0.00,,SCT,0.00,60.00,VWS V14.01,2013-05-15 10:40:00,
2013-05-15 06:45:00,54.4,48.4,30.07,East,93,0.0,1.0,80,0.00,,SCT,0.00,67.00,VWS V14.01,2013-05-15 10:45:00,
2013-05-15 06:50:00,54.5,48.8,30.07,East,93,0.0,1.0,81,0.00,,SCT,0.00,69.00,VWS V14.01,2013-05-15 10:50:00,
2013-05-15 06:55:00,54.5,49.5,30.08,East,93,0.0,0.0,83,0.00,,SCT,0.00,56.00,VWS V14.01,2013-05-15 10:55:00,
2013-05-15 07:00:00,55.1,48.4,30.07,NNW,337,1.0,4.0,78,0.00,,SCT,0.00,51.00,VWS V14.01,2013-05-15 11:00:00,
2013-05-15 07:05:00,55.3,48.9,30.07,North,360,0.0,5.0,79,0.00,,SCT,0.00,47.00,VWS V14.01,2013-05-15 11:05:00,
2013-05-15 07:11:00,55.5,48.4,30.07,NNE,22,1.0,5.0,77,0.00,,SCT,0.00,37.00,VWS V14.01,2013-05-15 11:11:00,
2013-05-15 07:16:00,56.0,48.5,30.07,NNE,22,0.0,5.0,76,0.00,,SCT,0.00,32.00,VWS V14.01,2013-05-15 11:16:00,
2013-05-15 07:21:00,55.9,48.8,30.07,NNE,19,0.0,5.0,77,0.00,,SCT,0.00,35.00,VWS V14.01,2013-05-15 11:21:00,
2013-05-15 07:26:00,55.6,48.5,30.07,NNE,19,0.0,5.0,77,0.00,,SCT,0.00,44.00,VWS V14.01,2013-05-15 11:26:00,
2013-05-15 07:31:00,55.5,49.1,30.07,NNE,19,0.0,5.0,79,0.00,,SCT,0.00,65.00,VWS V14.01,2013-05-15 11:31:00,
2013-05-15 07:36:00,55.8,49.0,30.07,North,5,4.0,6.0,78,0.00,,SCT,0.00,65.00,VWS V14.01,2013-05-15 11:36:00,
2013-05-15 07:41:00,56.1,49.0,30.07,NNW,346,0.0,6.0,77,0.00,,SCT,0.00,63.00,VWS V14.01,2013-05-15 11:41:00,
2013-05-15 07:46:00,56.4,48.9,30.06,NNE,13,2.0,7.0,76,0.00,,SCT,0.00,67.00,VWS V14.01,2013-05-15 11:46:00,
2013-05-15 07:52:00,56.2,49.1,30.06,North,9,0.0,7.0,77,0.00,,SCT,0.00,79.00,VWS V14.01,2013-05-15 11:52:00,
2013-05-15 07:57:00,56.3,49.2,30.06,NNW,348,3.0,3.0,77,0.00,,SCT,0.00,98.00,VWS V14.01,2013-05-15 11:57:00,
2013-05-15 08:00:00,56.2,49.1,30.07,North,9,0.0,7.0,77,0.00,,SCT,0.00,81.00,VWS V14.01,2013-05-15 12:00:00,
2013-05-15 08:02:00,56.8,49.7,30.06,NNW,347,0.0,3.0,77,0.00,,SCT,0.00,116.00,VWS V14.01,2013-05-15 12:02:00,
2013-05-15 08:07:00,57.0,49.9,30.06,NNW,348,0.0,3.0,77,0.00,,SCT,0.00,118.00,VWS V14.01,2013-05-15 12:07:00,
2013-05-15 08:12:00,57.3,50.2,30.06,NNW,348,0.0,3.0,77,0.00,,SCT,0.00,123.00,VWS V14.01,2013-05-15 12:12:00,
2013-05-15 08:17:00,57.5,50.0,30.06,NNW,347,0.0,3.0,76,0.00,,SCT,0.00,116.00,VWS V14.01,2013-05-15 12:17:00,
2013-05-15 08:22:00,58.0,50.5,30.06,NE,48,0.0,3.0,76,0.00,,SCT,0.00,88.00,VWS V14.01,2013-05-15 12:22:00,
2013-05-15 08:27:00,58.2,50.0,30.06,NNW,342,2.0,5.0,74,0.00,,SCT,0.00,79.00,VWS V14.01,2013-05-15 12:27:00,
2013-05-15 08:32:00,58.1,50.2,30.05,North,355,1.0,5.0,75,0.00,,SCT,0.00,81.00,VWS V14.01,2013-05-15 12:32:00,
2013-05-15 08:38:00,58.4,50.9,30.06,East,83,0.0,5.0,76,0.00,,SCT,0.00,79.00,VWS V14.01,2013-05-15 12:38:00,
2013-05-15 08:43:00,58.3,50.8,30.06,East,83,0.0,5.0,76,0.00,,SCT,0.00,88.00,VWS V14.01,2013-05-15 12:43:00,
2013-05-15 08:48:00,58.3,50.8,30.07,ENE,63,0.0,5.0,76,0.00,,SCT,0.00,114.00,VWS V14.01,2013-05-15 12:48:00,
2013-05-15 08:53:00,58.7,51.2,30.07,WNW,297,2.0,6.0,76,0.00,,SCT,0.00,162.00,VWS V14.01,2013-05-15 12:53:00,
2013-05-15 08:58:00,59.2,50.9,30.07,NNE,27,11.0,11.0,74,0.00,,SCT,0.00,206.00,VWS V14.01,2013-05-15 12:58:00,
2013-05-15 09:00:00,58.7,51.2,30.07,WNW,297,1.0,6.0,76,0.00,,SCT,0.00,162.00,VWS V14.01,2013-05-15 13:00:00,
2013-05-15 09:03:00,59.5,50.8,30.07,NE,34,3.0,12.0,73,0.00,,SCT,0.00,267.00,VWS V14.01,2013-05-15 13:03:00,
2013-05-15 09:08:00,60.3,51.2,30.06,NNE,24,7.0,12.0,72,0.00,,SCT,0.00,364.00,VWS V14.01,2013-05-15 13:08:00,
2013-05-15 09:13:00,61.4,51.9,30.06,NNE,29,10.0,12.0,71,0.00,,SCT,0.00,336.00,VWS V14.01,2013-05-15 13:13:00,
2013-05-15 09:18:00,62.9,53.0,30.07,NNE,19,10.0,12.0,70,0.00,,SCT,0.00,325.00,VWS V14.01,2013-05-15 13:18:00,
2013-05-15 09:23:00,64.3,53.1,30.07,NNE,19,12.0,14.0,67,0.00,,SCT,0.00,494.00,VWS V14.01,2013-05-15 13:23:00,
2013-05-15 09:28:00,65.0,53.4,30.07,NNE,32,8.0,14.0,66,0.00,,SCT,0.00,485.00,VWS V14.01,2013-05-15 13:28:00,
2013-05-15 09:33:00,65.4,53.3,30.07,ENE,64,7.0,17.0,65,0.00,,SCT,0.00,589.00,VWS V14.01,2013-05-15 13:33:00,
2013-05-15 09:38:00,65.8,53.7,30.06,NE,44,11.0,17.0,65,0.00,,SCT,0.00,468.00,VWS V14.01,2013-05-15 13:38:00,
2013-05-15 09:43:00,66.1,54.0,30.06,North,5,12.0,17.0,65,0.00,,SCT,0.00,390.00,VWS V14.01,2013-05-15 13:43:00,
2013-05-15 09:48:00,66.1,54.0,30.06,NE,49,10.0,17.0,65,0.00,,SCT,0.00,401.00,VWS V14.01,2013-05-15 13:48:00,
2013-05-15 09:54:00,66.4,54.3,30.06,NNE,22,11.0,12.0,65,0.00,,SCT,0.00,596.00,VWS V14.01,2013-05-15 13:54:00,
2013-05-15 09:59:00,67.2,54.6,30.05,NNE,31,9.0,14.0,64,0.00,,SCT,0.00,555.00,VWS V14.01,2013-05-15 13:59:00,
2013-05-15 10:00:00,66.3,54.2,30.06,NE,38,9.0,17.0,65,0.00,,SCT,0.00,631.00,VWS V14.01,2013-05-15 14:00:00,
2013-05-15 10:04:00,67.9,55.3,30.05,North,5,10.0,14.0,64,0.00,,SCT,0.00,339.00,VWS V14.01,2013-05-15 14:04:00,
2013-05-15 10:09:00,68.5,55.4,30.05,NNE,28,5.0,14.0,63,0.00,,SCT,0.00,311.00,VWS V14.01,2013-05-15 14:09:00,
2013-05-15 10:14:00,68.6,55.5,30.05,North,360,4.0,14.0,63,0.00,,SCT,0.00,322.00,VWS V14.01,2013-05-15 14:14:00,
2013-05-15 10:19:00,69.2,56.1,30.04,NNE,32,7.0,14.0,63,0.00,,SCT,0.00,292.00,VWS V14.01,2013-05-15 14:19:00,
2013-05-15 10:24:00,69.4,56.3,30.04,NE,36,12.0,21.0,63,0.00,,SCT,0.00,218.00,VWS V14.01,2013-05-15 14:24:00,
2013-05-15 10:29:00,69.4,56.3,30.04,NNE,22,10.0,21.0,63,0.00,,SCT,0.00,239.00,VWS V14.01,2013-05-15 14:29:00,
2013-05-15 10:34:00,69.5,56.4,30.04,NE,36,7.0,21.0,63,0.00,,SCT,0.00,248.00,VWS V14.01,2013-05-15 14:34:00,
2013-05-15 10:39:00,69.5,56.8,30.03,NNE,12,9.0,21.0,64,0.00,,SCT,0.00,276.00,VWS V14.01,2013-05-15 14:39:00,
2013-05-15 10:44:00,70.1,56.9,30.03,NNE,22,9.0,21.0,63,0.00,,SCT,0.00,531.00,VWS V14.01,2013-05-15 14:44:00,
2013-05-15 10:49:00,71.5,58.3,30.03,NNE,18,8.0,21.0,63,0.00,,SCT,0.00,798.00,VWS V14.01,2013-05-15 14:49:00,
2013-05-15 10:55:00,72.7,58.5,30.02,North,5,3.0,10.0,61,0.00,,SCT,0.00,874.00,VWS V14.01,2013-05-15 14:55:00,
2013-05-15 11:00:00,74.0,58.8,30.02,NNE,28,5.0,13.0,59,0.00,,SCT,0.00,466.00,VWS V14.01,2013-05-15 15:00:00,
2013-05-15 11:05:00,74.4,59.6,30.02,North,5,8.0,13.0,60,0.00,,SCT,0.00,311.00,VWS V14.01,2013-05-15 15:05:00,
2013-05-15 11:10:00,74.5,59.2,30.02,NE,43,6.0,13.0,59,0.00,,SCT,0.00,294.00,VWS V14.01,2013-05-15 15:10:00,
2013-05-15 11:15:00,75.5,60.2,30.02,NNE,30,10.0,13.0,59,0.00,,SCT,0.00,647.00,VWS V14.01,2013-05-15 15:15:00,
2013-05-15 11:20:00,75.6,59.8,30.02,North,360,7.0,13.0,58,0.00,,SCT,0.00,308.00,VWS V14.01,2013-05-15 15:20:00,
2013-05-15 11:25:00,76.2,60.4,30.02,NNE,22,7.0,13.0,58,0.00,,SCT,0.00,881.00,VWS V14.01,2013-05-15 15:25:00,
2013-05-15 11:30:00,77.3,60.4,30.01,NE,44,7.0,13.0,56,0.00,,SCT,0.00,823.00,VWS V14.01,2013-05-15 15:30:00,
2013-05-15 11:35:00,77.7,61.3,30.01,NNE,22,9.0,13.0,57,0.00,,SCT,0.00,860.00,VWS V14.01,2013-05-15 15:35:00,
2013-05-15 11:40:00,77.6,61.2,30.01,NW,313,6.0,13.0,57,0.00,,SCT,0.00,907.00,VWS V14.01,2013-05-15 15:40:00,
2013-05-15 11:45:00,76.4,61.0,30.01,WSW,249,10.0,13.0,59,0.00,,SCT,0.00,916.00,VWS V14.01,2013-05-15 15:45:00,
2013-05-15 11:50:00,75.8,60.9,30.01,NNW,336,9.0,14.0,60,0.00,,SCT,0.00,849.00,VWS V14.01,2013-05-15 15:50:00,
2013-05-15 11:55:00,76.3,60.9,30.01,NNW,329,8.0,14.0,59,0.00,,SCT,0.00,844.00,VWS V14.01,2013-05-15 15:55:00,
2013-05-15 12:00:00,76.8,60.9,30.01,North,11,9.0,14.0,58,0.00,,SCT,0.00,846.00,VWS V14.01,2013-05-15 16:00:00,
2013-05-15 12:05:00,76.9,60.5,30.01,NNW,348,6.0,14.0,57,0.00,,SCT,0.00,849.00,VWS V14.01,2013-05-15 16:05:00,
2013-05-15 12:11:00,77.2,60.3,30.00,NNE,32,12.0,14.0,56,0.00,,SCT,0.00,856.00,VWS V14.01,2013-05-15 16:11:00,
2013-05-15 12:16:00,77.2,59.8,30.00,NNE,18,18.0,18.0,55,0.00,,SCT,0.00,861.00,VWS V14.01,2013-05-15 16:16:00,
2013-05-15 12:21:00,77.4,60.5,30.00,NNE,22,8.0,18.0,56,0.00,,SCT,0.00,868.00,VWS V14.01,2013-05-15 16:21:00,
2013-05-15 12:26:00,77.3,59.9,30.00,NNW,342,10.0,18.0,55,0.00,,SCT,0.00,865.00,VWS V14.01,2013-05-15 16:26:00,
2013-05-15 12:31:00,78.4,61.4,30.00,NNW,333,6.0,18.0,56,0.00,,SCT,0.00,879.00,VWS V14.01,2013-05-15 16:31:00,
2013-05-15 12:36:00,78.9,61.4,29.99,North,5,10.0,18.0,55,0.00,,SCT,0.00,863.00,VWS V14.01,2013-05-15 16:36:00,
2013-05-15 12:41:00,78.6,60.6,29.99,NNE,13,9.0,18.0,54,0.00,,SCT,0.00,881.00,VWS V14.01,2013-05-15 16:41:00,
2013-05-15 12:46:00,79.5,61.4,29.99,NNE,28,12.0,18.0,54,0.00,,SCT,0.00,802.00,VWS V14.01,2013-05-15 16:46:00,
2013-05-15 12:51:00,79.2,61.1,29.99,NNE,17,12.0,18.0,54,0.00,,SCT,0.00,823.00,VWS V14.01,2013-05-15 16:51:00,
2013-05-15 12:56:00,79.4,61.3,29.98,North,5,10.0,16.0,54,0.00,,SCT,0.00,636.00,VWS V14.01,2013-05-15 16:56:00,
2013-05-15 13:00:00,79.2,61.1,29.99,NNE,21,12.0,18.0,54,0.00,,SCT,0.00,587.00,VWS V14.01,2013-05-15 17:00:00,
2013-05-15 13:01:00,80.3,62.2,29.98,NNW,336,6.0,16.0,54,0.00,,SCT,0.00,867.00,VWS V14.01,2013-05-15 17:01:00,
2013-05-15 13:07:00,80.4,61.2,29.98,North,5,18.0,18.0,52,0.00,,SCT,0.00,795.00,VWS V14.01,2013-05-15 17:07:00,
2013-05-15 13:12:00,80.2,62.1,29.98,North,5,18.0,18.0,54,0.00,,SCT,0.00,88.00,VWS V14.01,2013-05-15 17:12:00,
2013-05-15 13:17:00,80.8,62.1,29.98,North,360,10.0,18.0,53,0.00,,SCT,0.00,118.00,VWS V14.01,2013-05-15 17:17:00,
2013-05-15 13:22:00,81.4,62.6,29.97,North,10,7.0,18.0,53,0.00,,SCT,0.00,367.00,VWS V14.01,2013-05-15 17:22:00,
2013-05-15 13:27:00,82.4,63.0,29.97,North,5,14.0,18.0,52,0.00,,SCT,0.00,868.00,VWS V14.01,2013-05-15 17:27:00,
2013-05-15 13:32:00,82.3,62.4,29.97,North,360,7.0,18.0,51,0.00,,SCT,0.00,872.00,VWS V14.01,2013-05-15 17:32:00,
2013-05-15 13:37:00,81.9,62.0,29.96,NNE,14,12.0,20.0,51,0.00,,SCT,0.00,870.00,VWS V14.01,2013-05-15 17:37:00,
2013-05-15 13:42:00,83.3,63.3,29.96,NNE,22,7.0,20.0,51,0.00,,SCT,0.00,868.00,VWS V14.01,2013-05-15 17:42:00,
2013-05-15 13:47:00,83.5,62.9,29.96,NNE,17,11.0,20.0,50,0.00,,SCT,0.00,867.00,VWS V14.01,2013-05-15 17:47:00,
2013-05-15 13:52:00,83.5,63.5,29.95,North,5,6.0,20.0,51,0.00,,SCT,0.00,865.00,VWS V14.01,2013-05-15 17:52:00,
2013-05-15 13:57:00,83.7,63.7,29.95,NNE,19,3.0,15.0,51,0.00,,SCT,0.00,858.00,VWS V14.01,2013-05-15 17:57:00,
2013-05-15 14:00:00,83.7,63.1,29.95,North,5,9.0,20.0,50,0.00,,SCT,0.00,865.00,VWS V14.01,2013-05-15 18:00:00,
2013-05-15 14:02:00,83.9,63.3,29.94,North,360,9.0,17.0,50,0.00,,SCT,0.00,856.00,VWS V14.01,2013-05-15 18:02:00,
2013-05-15 14:07:00,84.9,63.6,29.94,NNE,25,10.0,19.0,49,0.00,,SCT,0.00,856.00,VWS V14.01,2013-05-15 18:07:00,
2013-05-15 14:12:00,84.8,64.1,29.94,NW,309,11.0,19.0,50,0.00,,SCT,0.00,847.00,VWS V14.01,2013-05-15 18:12:00,
2013-05-15 14:17:00,84.8,64.1,29.94,NE,42,10.0,19.0,50,0.00,,SCT,0.00,844.00,VWS V14.01,2013-05-15 18:17:00,
2013-05-15 14:23:00,85.0,64.3,29.93,North,9,10.0,19.0,50,0.00,,SCT,0.00,838.00,VWS V14.01,2013-05-15 18:23:00,
2013-05-15 14:28:00,84.9,63.6,29.93,WNW,286,9.0,19.0,49,0.00,,SCT,0.00,831.00,VWS V14.01,2013-05-15 18:28:00,
2013-05-15 14:32:00,84.9,64.2,29.92,NNE,30,4.0,19.0,50,0.00,,SCT,0.00,824.00,VWS V14.01,2013-05-15 18:32:00,
2013-05-15 14:38:00,86.1,64.1,29.92,NNW,346,9.0,19.0,48,0.00,,SCT,0.00,817.00,VWS V14.01,2013-05-15 18:38:00,
2013-05-15 14:43:00,86.3,63.7,29.92,NNE,14,12.0,21.0,47,0.00,,SCT,0.00,812.00,VWS V14.01,2013-05-15 18:43:00,
2013-05-15 14:48:00,86.3,63.7,29.92,NE,40,6.0,21.0,47,0.00,,SCT,0.00,803.00,VWS V14.01,2013-05-15 18:48:00,
2013-05-15 14:53:00,86.3,63.7,29.92,North,5,16.0,17.0,47,0.00,,SCT,0.00,795.00,VWS V14.01,2013-05-15 18:53:00,
2013-05-15 14:58:00,85.8,64.4,29.91,NNW,344,7.0,18.0,49,0.00,,SCT,0.00,789.00,VWS V14.01,2013-05-15 18:58:00,
2013-05-15 15:00:00,86.4,63.8,29.91,NNE,19,14.0,21.0,47,0.00,,SCT,0.00,796.00,VWS V14.01,2013-05-15 19:00:00,
2013-05-15 15:03:00,86.1,64.7,29.90,NNW,327,9.0,18.0,49,0.00,,SCT,0.00,779.00,VWS V14.01,2013-05-15 19:03:00,
2013-05-15 15:08:00,85.9,64.0,29.90,North,10,13.0,18.0,48,0.00,,SCT,0.00,772.00,VWS V14.01,2013-05-15 19:08:00,
2013-05-15 15:13:00,85.9,64.5,29.90,NNE,16,15.0,19.0,49,0.00,,SCT,0.00,763.00,VWS V14.01,2013-05-15 19:13:00,
2013-05-15 15:18:00,86.0,64.6,29.90,NNE,14,13.0,19.0,49,0.00,,SCT,0.00,754.00,VWS V14.01,2013-05-15 19:18:00,
2013-05-15 15:23:00,86.1,64.7,29.89,NNE,19,16.0,20.0,49,0.00,,SCT,0.00,747.00,VWS V14.01,2013-05-15 19:23:00,
2013-05-15 15:28:00,86.6,65.2,29.89,NNE,19,13.0,20.0,49,0.00,,SCT,0.00,735.00,VWS V14.01,2013-05-15 19:28:00,
2013-05-15 15:33:00,86.7,64.7,29.88,North,11,17.0,21.0,48,0.00,,SCT,0.00,722.00,VWS V14.01,2013-05-15 19:33:00,
2013-05-15 15:38:00,86.7,64.7,29.88,North,11,14.0,21.0,48,0.00,,SCT,0.00,715.00,VWS V14.01,2013-05-15 19:38:00,
2013-05-15 15:43:00,86.7,64.1,29.88,North,5,16.0,21.0,47,0.00,,SCT,0.00,701.00,VWS V14.01,2013-05-15 19:43:00,
2013-05-15 15:48:00,87.1,65.1,29.88,NNE,20,14.0,21.0,48,0.00,,SCT,0.00,689.00,VWS V14.01,2013-05-15 19:48:00,
2013-05-15 15:54:00,87.5,64.8,29.87,NNE,15,9.0,16.0,47,0.00,,SCT,0.00,677.00,VWS V14.01,2013-05-15 19:54:00,
2013-05-15 15:59:00,87.8,64.5,29.87,North,9,7.0,21.0,46,0.00,,SCT,0.00,663.00,VWS V14.01,2013-05-15 19:59:00,
2013-05-15 16:00:00,87.4,64.7,29.88,North,9,13.0,22.0,47,0.00,,SCT,0.00,679.00,VWS V14.01,2013-05-15 20:00:00,
2013-05-15 16:04:00,87.9,64.6,29.87,NNE,20,10.0,21.0,46,0.00,,SCT,0.00,654.00,VWS V14.01,2013-05-15 20:04:00,
2013-05-15 16:09:00,88.2,64.8,29.86,North,5,12.0,21.0,46,0.00,,SCT,0.00,636.00,VWS V14.01,2013-05-15 20:09:00,
2013-05-15 16:14:00,88.1,64.7,29.86,NNW,346,12.0,21.0,46,0.00,,SCT,0.00,626.00,VWS V14.01,2013-05-15 20:14:00,
2013-05-15 16:19:00,88.3,64.9,29.86,NNW,332,18.0,21.0,46,0.00,,SCT,0.00,610.00,VWS V14.01,2013-05-15 20:19:00,
2013-05-15 16:24:00,88.6,64.6,29.86,NNE,15,11.0,25.0,45,0.00,,SCT,0.00,596.00,VWS V14.01,2013-05-15 20:24:00,
2013-05-15 16:30:00,88.9,64.8,29.85,NW,322,8.0,25.0,45,0.00,,SCT,0.00,584.00,VWS V14.01,2013-05-15 20:30:00,
2013-05-15 16:35:00,88.9,64.2,29.85,NNE,18,9.0,25.0,44,0.00,,SCT,0.00,571.00,VWS V14.01,2013-05-15 20:35:00,
2013-05-15 16:40:00,89.4,64.6,29.85,North,5,13.0,25.0,44,0.00,,SCT,0.00,555.00,VWS V14.01,2013-05-15 20:40:00,
2013-05-15 16:45:00,88.9,64.2,29.85,North,5,20.0,25.0,44,0.00,,SCT,0.00,538.00,VWS V14.01,2013-05-15 20:45:00,
2013-05-15 16:50:00,88.7,65.3,29.85,North,351,12.0,25.0,46,0.00,,SCT,0.00,527.00,VWS V14.01,2013-05-15 20:50:00,
2013-05-15 16:55:00,88.8,64.7,29.84,NNW,327,10.0,19.0,45,0.00,,SCT,0.00,512.00,VWS V14.01,2013-05-15 20:55:00,
2013-05-15 17:00:00,89.1,64.4,29.84,NNW,327,14.0,19.0,44,0.00,,SCT,0.00,499.00,VWS V14.01,2013-05-15 21:00:00,
2013-05-15 17:05:00,89.1,65.0,29.84,NNE,13,9.0,19.0,45,0.00,,SCT,0.00,483.00,VWS V14.01,2013-05-15 21:05:00,
2013-05-15 17:10:00,89.4,64.0,29.84,NNE,17,11.0,19.0,43,0.00,,SCT,0.00,468.00,VWS V14.01,2013-05-15 21:10:00,
2013-05-15 17:15:00,89.4,64.0,29.84,NNE,22,14.0,20.0,43,0.00,,SCT,0.00,455.00,VWS V14.01,2013-05-15 21:15:00,
2013-05-15 17:20:00,89.4,64.0,29.83,North,360,14.0,20.0,43,0.00,,SCT,0.00,439.00,VWS V14.01,2013-05-15 21:20:00,
2013-05-15 17:25:00,89.5,63.4,29.84,NNE,30,16.0,23.0,42,0.00,,SCT,0.00,424.00,VWS V14.01,2013-05-15 21:25:00,
2013-05-15 17:30:00,89.5,63.4,29.83,NNE,24,8.0,23.0,42,0.00,,SCT,0.00,406.00,VWS V14.01,2013-05-15 21:30:00,
2013-05-15 17:35:00,89.8,63.7,29.83,NNW,333,16.0,23.0,42,0.00,,SCT,0.00,394.00,VWS V14.01,2013-05-15 21:35:00,
2013-05-15 17:40:00,89.7,64.2,29.83,NNE,12,6.0,23.0,43,0.00,,SCT,0.00,374.00,VWS V14.01,2013-05-15 21:40:00,
2013-05-15 17:46:00,89.5,64.1,29.83,North,355,13.0,23.0,43,0.00,,SCT,0.00,360.00,VWS V14.01,2013-05-15 21:46:00,
2013-05-15 17:51:00,89.3,64.6,29.83,NNE,26,16.0,23.0,44,0.00,,SCT,0.00,346.00,VWS V14.01,2013-05-15 21:51:00,
2013-05-15 17:56:00,89.2,65.1,29.83,North,360,8.0,17.0,45,0.00,,SCT,0.00,330.00,VWS V14.01,2013-05-15 21:56:00,
2013-05-15 18:00:00,89.2,65.1,29.83,NNE,22,15.0,23.0,45,0.00,,SCT,0.00,339.00,VWS V14.01,2013-05-15 22:00:00,
2013-05-15 18:01:00,89.2,65.1,29.83,NE,36,20.0,20.0,45,0.00,,SCT,0.00,313.00,VWS V14.01,2013-05-15 22:01:00,
2013-05-15 18:06:00,89.2,65.1,29.83,NNW,329,13.0,21.0,45,0.00,,SCT,0.00,297.00,VWS V14.01,2013-05-15 22:06:00,
2013-05-15 18:11:00,89.0,64.9,29.83,North,5,8.0,21.0,45,0.00,,SCT,0.00,283.00,VWS V14.01,2013-05-15 22:11:00,
2013-05-15 18:16:00,88.9,64.8,29.83,NNE,13,10.0,21.0,45,0.00,,SCT,0.00,267.00,VWS V14.01,2013-05-15 22:16:00,
2013-05-15 18:21:00,89.0,64.9,29.83,North,11,15.0,21.0,45,0.00,,SCT,0.00,251.00,VWS V14.01,2013-05-15 22:21:00,
2013-05-15 18:26:00,88.8,64.7,29.82,NNE,20,15.0,21.0,45,0.00,,SCT,0.00,239.00,VWS V14.01,2013-05-15 22:26:00,
2013-05-15 18:31:00,88.8,65.4,29.82,NNE,22,7.0,21.0,46,0.00,,SCT,0.00,221.00,VWS V14.01,2013-05-15 22:31:00,
2013-05-15 18:36:00,88.8,65.4,29.82,NNE,28,13.0,21.0,46,0.00,,SCT,0.00,206.00,VWS V14.01,2013-05-15 22:36:00,
2013-05-15 18:41:00,88.5,65.7,29.83,NNW,336,12.0,21.0,47,0.00,,SCT,0.00,192.00,VWS V14.01,2013-05-15 22:41:00,
2013-05-15 18:47:00,88.3,65.5,29.82,NNE,19,8.0,21.0,47,0.00,,SCT,0.00,172.00,VWS V14.01,2013-05-15 22:47:00,
2013-05-15 18:51:00,88.1,65.3,29.83,North,5,12.0,21.0,47,0.00,,SCT,0.00,148.00,VWS V14.01,2013-05-15 22:51:00,
2013-05-15 18:57:00,88.0,65.3,29.83,NE,36,9.0,14.0,47,0.00,,SCT,0.00,118.00,VWS V14.01,2013-05-15 22:57:00,
2013-05-15 19:00:00,88.1,66.0,29.83,NNE,16,11.0,21.0,48,0.00,,SCT,0.00,146.00,VWS V14.01,2013-05-15 23:00:00,
2013-05-15 19:02:00,87.9,65.8,29.83,North,360,11.0,20.0,48,0.00,,SCT,0.00,121.00,VWS V14.01,2013-05-15 23:02:00,
2013-05-15 19:07:00,87.8,65.7,29.82,North,11,13.0,20.0,48,0.00,,SCT,0.00,107.00,VWS V14.01,2013-05-15 23:07:00,
2013-05-15 19:12:00,87.5,66.0,29.83,NE,49,11.0,20.0,49,0.00,,SCT,0.00,95.00,VWS V14.01,2013-05-15 23:12:00,
2013-05-15 19:17:00,87.2,65.7,29.83,NNE,17,12.0,20.0,49,0.00,,SCT,0.00,81.00,VWS V14.01,2013-05-15 23:17:00,
2013-05-15 19:22:00,87.0,65.6,29.83,North,360,15.0,20.0,49,0.00,,SCT,0.00,67.00,VWS V14.01,2013-05-15 23:22:00,
2013-05-15 19:27:00,86.9,65.5,29.83,North,11,6.0,20.0,49,0.00,,SCT,0.00,58.00,VWS V14.01,2013-05-15 23:27:00,
2013-05-15 19:32:00,86.6,65.8,29.83,NNE,22,7.0,20.0,50,0.00,,SCT,0.00,44.00,VWS V14.01,2013-05-15 23:32:00,
2013-05-15 19:37:00,86.4,65.6,29.83,North,350,8.0,20.0,50,0.00,,SCT,0.00,35.00,VWS V14.01,2013-05-15 23:37:00,
2013-05-15 19:42:00,86.3,65.5,29.83,NNE,27,10.0,20.0,50,0.00,,SCT,0.00,28.00,VWS V14.01,2013-05-15 23:42:00,
2013-05-15 19:47:00,86.1,65.3,29.83,North,5,13.0,20.0,50,0.00,,SCT,0.00,21.00,VWS V14.01,2013-05-15 23:47:00,
2013-05-15 19:53:00,85.9,65.7,29.84,NNE,13,7.0,20.0,51,0.00,,SCT,0.00,18.00,VWS V14.01,2013-05-15 23:53:00,
2013-05-15 19:58:00,85.7,65.5,29.83,North,10,10.0,15.0,51,0.00,,SCT,0.00,16.00,VWS V14.01,2013-05-15 23:58:00,
2013-05-15 20:00:00,85.9,65.7,29.84,NNE,13,7.0,20.0,51,0.00,,SCT,0.00,18.00,VWS V14.01,2013-05-16 00:00:00,
2013-05-15 20:03:00,85.5,65.9,29.84,NNE,19,11.0,15.0,52,0.00,,SCT,0.00,12.00,VWS V14.01,2013-05-16 00:03:00,
2013-05-15 20:08:00,85.2,65.6,29.84,NNE,21,9.0,15.0,52,0.00,,SCT,0.00,9.00,VWS V14.01,2013-05-16 00:08:00,
2013-05-15 20:13:00,85.0,65.4,29.84,NNE,17,8.0,16.0,52,0.00,,SCT,0.00,5.00,VWS V14.01,2013-05-16 00:13:00,
2013-05-15 20:18:00,84.8,65.2,29.84,NNW,347,7.0,16.0,52,0.00,,SCT,0.00,0.00,VWS V14.01,2013-05-16 00:18:00,
2013-05-15 20:23:00,84.5,65.5,29.84,NNE,29,9.0,16.0,53,0.00,,SCT,0.00,0.00,VWS V14.01,2013-05-16 00:23:00,
2013-05-15 20:28:00,84.2,65.2,29.84,NNE,21,11.0,16.0,53,0.00,,SCT,0.00,0.00,VWS V14.01,2013-05-16 00:28:00,
2013-05-15 20:33:00,84.0,65.1,29.84,NNE,15,10.0,16.0,53,0.00,,SCT,0.00,0.00,VWS V14.01,2013-05-16 00:33:00,
2013-05-15 20:39:00,83.8,64.9,29.85,NNE,15,10.0,16.0,53,0.00,,SCT,0.00,0.00,VWS V14.01,2013-05-16 00:39:00,
2013-05-15 20:44:00,83.8,64.9,29.85,NNE,28,8.0,16.0,53,0.00,,SCT,0.00,0.00,VWS V14.01,2013-05-16 00:44:00,
2013-05-15 20:49:00,83.7,64.8,29.85,NNE,17,10.0,16.0,53,0.00,,SCT,0.00,0.00,VWS V14.01,2013-05-16 00:49:00,
2013-05-15 20:54:00,83.5,64.6,29.86,NNE,20,9.0,10.0,53,0.00,,SCT,0.00,0.00,VWS V14.01,2013-05-16 00:54:00,
2013-05-15 20:59:00,83.3,64.9,29.86,NNE,19,9.0,12.0,54,0.00,,SCT,0.00,0.00,VWS V14.01,2013-05-16 00:59:00,
2013-05-15 21:00:00,83.5,64.6,29.86,NE,36,10.0,16.0,53,0.00,,SCT,0.00,0.00,VWS V14.01,2013-05-16 01:00:00,
2013-05-15 21:04:00,83.1,64.8,29.86,NNE,12,9.0,12.0,54,0.00,,SCT,0.00,0.00,VWS V14.01,2013-05-16 01:04:00,
2013-05-15 21:09:00,82.9,64.6,29.86,NNE,15,6.0,12.0,54,0.00,,SCT,0.00,0.00,VWS V14.01,2013-05-16 01:09:00,
2013-05-15 21:14:00,82.7,64.4,29.87,NNE,19,10.0,13.0,54,0.00,,SCT,0.00,0.00,VWS V14.01,2013-05-16 01:14:00,
2013-05-15 21:19:00,82.7,64.4,29.87,North,5,11.0,13.0,54,0.00,,SCT,0.00,0.00,VWS V14.01,2013-05-16 01:19:00,
2013-05-15 21:24:00,82.5,64.2,29.87,NNE,30,8.0,13.0,54,0.00,,SCT,0.00,0.00,VWS V14.01,2013-05-16 01:24:00,
2013-05-15 21:29:00,82.3,64.5,29.88,NNE,12,10.0,13.0,55,0.00,,SCT,0.00,0.00,VWS V14.01,2013-05-16 01:29:00,
2013-05-15 21:34:00,82.1,64.3,29.88,NNE,22,6.0,13.0,55,0.00,,SCT,0.00,0.00,VWS V14.01,2013-05-16 01:34:00,
2013-05-15 21:39:00,81.9,64.7,29.88,NNE,33,6.0,13.0,56,0.00,,SCT,0.00,0.00,VWS V14.01,2013-05-16 01:39:00,
2013-05-15 21:44:00,81.7,64.5,29.88,North,360,7.0,13.0,56,0.00,,SCT,0.00,0.00,VWS V14.01,2013-05-16 01:44:00,
2013-05-15 21:49:00,81.4,64.7,29.88,NNE,33,6.0,13.0,57,0.00,,SCT,0.00,0.00,VWS V14.01,2013-05-16 01:49:00,
2013-05-15 21:54:00,81.2,65.0,29.89,NE,36,4.0,7.0,58,0.00,,SCT,0.00,0.00,VWS V14.01,2013-05-16 01:54:00,
2013-05-15 21:59:00,80.7,64.6,29.89,NNE,23,8.0,10.0,58,0.00,,SCT,0.00,0.00,VWS V14.01,2013-05-16 01:59:00,
2013-05-15 22:00:00,81.3,64.6,29.89,NNE,15,6.0,13.0,57,0.00,,SCT,0.00,0.00,VWS V14.01,2013-05-16 02:00:00,
2013-05-15 22:05:00,80.3,64.7,29.89,NE,44,5.0,10.0,59,0.00,,SCT,0.00,0.00,VWS V14.01,2013-05-16 02:05:00,
2013-05-15 22:10:00,79.6,65.0,29.90,NE,44,5.0,10.0,61,0.00,,SCT,0.00,0.00,VWS V14.01,2013-05-16 02:10:00,
2013-05-15 22:14:00,78.9,64.8,29.90,NE,41,2.0,10.0,62,0.00,,SCT,0.00,0.00,VWS V14.01,2013-05-16 02:14:00,
2013-05-15 22:20:00,78.2,65.0,29.90,NE,42,4.0,10.0,64,0.00,,SCT,0.00,0.00,VWS V14.01,2013-05-16 02:20:00,
2013-05-15 22:25:00,77.8,65.1,29.90,NNE,31,4.0,10.0,65,0.00,,SCT,0.00,0.00,VWS V14.01,2013-05-16 02:25:00,
2013-05-15 22:30:00,77.7,65.0,29.91,NE,43,6.0,10.0,65,0.00,,SCT,0.00,0.00,VWS V14.01,2013-05-16 02:30:00,
2013-05-15 22:35:00,77.9,64.8,29.91,NE,44,5.0,10.0,64,0.00,,SCT,0.00,0.00,VWS V14.01,2013-05-16 02:35:00,
2013-05-15 22:40:00,78.1,64.5,29.91,NNE,18,7.0,10.0,63,0.00,,SCT,0.00,0.00,VWS V14.01,2013-05-16 02:40:00,
2013-05-15 22:45:00,78.3,63.8,29.91,NNE,33,5.0,10.0,61,0.00,,SCT,0.00,0.00,VWS V14.01,2013-05-16 02:45:00,
2013-05-15 22:50:00,78.3,63.3,29.91,NNE,33,5.0,10.0,60,0.00,,SCT,0.00,0.00,VWS V14.01,2013-05-16 02:50:00,
2013-05-15 22:55:00,78.1,63.6,29.91,ENE,65,5.0,7.0,61,0.00,,SCT,0.00,0.00,VWS V14.01,2013-05-16 02:55:00,
2013-05-15 23:00:00,77.8,63.3,29.91,ENE,57,4.0,7.0,61,0.00,,SCT,0.00,0.00,VWS V14.01,2013-05-16 03:00:00,
2013-05-15 23:06:00,77.6,62.6,29.91,NNE,15,5.0,7.0,60,0.00,,SCT,0.00,0.00,VWS V14.01,2013-05-16 03:06:00,
2013-05-15 23:11:00,78.0,62.0,29.91,NNE,33,3.0,7.0,58,0.00,,SCT,0.00,0.00,VWS V14.01,2013-05-16 03:11:00,
2013-05-15 23:16:00,78.1,61.6,29.91,NNE,20,6.0,7.0,57,0.00,,SCT,0.00,0.00,VWS V14.01,2013-05-16 03:16:00,
2013-05-15 23:21:00,78.1,61.1,29.91,North,9,2.0,7.0,56,0.00,,SCT,0.00,0.00,VWS V14.01,2013-05-16 03:21:00,
2013-05-15 23:26:00,78.5,60.0,29.91,North,5,4.0,7.0,53,0.00,,SCT,0.00,0.00,VWS V14.01,2013-05-16 03:26:00,
2013-05-15 23:31:00,78.4,59.9,29.91,North,11,0.0,7.0,53,0.00,,SCT,0.00,0.00,VWS V14.01,2013-05-16 03:31:00,
2013-05-15 23:36:00,77.5,61.1,29.91,North,11,1.0,7.0,57,0.00,,SCT,0.00,0.00,VWS V14.01,2013-05-16 03:36:00,
2013-05-15 23:41:00,77.0,62.1,29.91,NNE,12,2.0,7.0,60,0.00,,SCT,0.00,0.00,VWS V14.01,2013-05-16 03:41:00,
2013-05-15 23:46:00,76.1,61.2,29.91,NNE,18,1.0,7.0,60,0.00,,SCT,0.00,0.00,VWS V14.01,2013-05-16 03:46:00,
2013-05-15 23:52:00,75.7,60.4,29.91,NNE,18,0.0,7.0,59,0.00,,SCT,0.00,0.00,VWS V14.01,2013-05-16 03:52:00,
2013-05-15 23:57:00,76.0,60.7,29.91,NNE,18,0.0,2.0,59,0.00,,SCT,0.00,0.00,VWS V14.01,2013-05-16 03:57:00,